This is the latest recevied weather packets stored in our database for station/object WD5U-1. If no packets are shown the sender has not sent any weather packets the latest 10 day(s).
| Time | Temp. | Humidity | Pressure | Rain* | Wind** | Luminosity | Snow |
|---|---|---|---|---|---|---|---|
| 1777937300 | 26.11° C | 64% | 1006.8 hPa | 0 mm | - | - | - |
| 1777936945 | 26.11° C | 65% | 1007 hPa | 0 mm | - | - | - |
| 1777936581 | 26.11° C | 65% | 1007 hPa | 0 mm | - | - | - |
| 1777936246 | 26.11° C | 63% | 1007 hPa | 0 mm | - | - | - |
| 1777936003 | 26.11° C | 63% | 1007 hPa | 0 mm | - | - | - |
| 1777935266 | 26.67° C | 62% | 1007.2 hPa | 0 mm | - | - | - |
| 1777934778 | 27.22° C | 62% | 1007.2 hPa | 0 mm | - | - | - |
| 1777932025 | 27.22° C | 60% | 1007.4 hPa | 0 mm | - | - | - |
| 1777931439 | 27.22° C | 60% | 1007.9 hPa | 0 mm | - | - | - |
| 1777930820 | 27.22° C | 59% | 1007.7 hPa | 0 mm | - | - | - |
| 1777930223 | 27.22° C | 59% | 1007.9 hPa | 0 mm | - | - | - |
| 1777929636 | 26.67° C | 61% | 1008.4 hPa | 0 mm | - | - | - |
| 1777927827 | 26.67° C | 62% | 1008.7 hPa | 0 mm | - | - | - |
| 1777927105 | 26.67° C | 61% | 1008.9 hPa | 0 mm | - | - | - |
| 1777925426 | 26.11° C | 61% | 1009.5 hPa | 0 mm | - | - | - |
| 1777925304 | 26.11° C | 63% | 1009.5 hPa | 0 mm | - | - | - |
| 1777925203 | 26.11° C | 61% | 1009.5 hPa | 0 mm | - | - | - |
| 1777923623 | 26.11° C | 62% | 1010.1 hPa | 0 mm | - | - | - |
| 1777923522 | 26.11° C | 63% | 1010.2 hPa | 0 mm | - | - | - |
| 1777923380 | 26.11° C | 62% | 1010.3 hPa | 0 mm | - | - | - |
| 1777922421 | 25.56° C | 63% | 1010.3 hPa | 0 mm | - | - | - |
| 1777922299 | 25.56° C | 63% | 1010.4 hPa | 0 mm | - | - | - |
| 1777922085 | 25° C | 64% | 1010.3 hPa | 0 mm | - | - | - |
| 1777921964 | 25.56° C | 63% | 1010.6 hPa | 0 mm | - | - | - |
| 1777921227 | 25° C | 64% | 1010.6 hPa | 0 mm | - | - | - |
* Rain latest hour (hover to see other rain measurements)
** Current wind speed in m/s (hover to see current wind gust speed)